TimeCDT,TemperatureF,Dew PointF,Humidity,Sea Level PressureIn,VisibilityMPH,Wind Direction,Wind SpeedMPH,Gust SpeedMPH,PrecipitationIn,Events,Conditions,WindDirDegrees,DateUTC
12:54 AM,50.0,46.0,86,30.14,10.0,West,17.3,-,N/A,,Clear,280,2012-10-01 05:54:00
1:54 AM,50.0,45.0,83,30.14,10.0,WNW,16.1,-,N/A,,Clear,290,2012-10-01 06:54:00
2:54 AM,48.9,43.0,80,30.15,10.0,WNW,17.3,-,N/A,,Clear,290,2012-10-01 07:54:00
3:54 AM,46.9,42.1,83,30.16,10.0,WNW,15.0,-,N/A,,Clear,290,2012-10-01 08:54:00
4:54 AM,46.0,41.0,83,30.17,10.0,West,15.0,-,N/A,,Clear,280,2012-10-01 09:54:00
5:54 AM,45.0,39.9,82,30.18,10.0,West,13.8,-,N/A,,Clear,280,2012-10-01 10:54:00
6:54 AM,44.1,37.9,79,30.19,10.0,West,12.7,-,N/A,,Clear,260,2012-10-01 11:54:00
7:54 AM,44.1,37.0,76,30.20,10.0,West,13.8,-,N/A,,Clear,260,2012-10-01 12:54:00
8:54 AM,46.0,37.0,71,30.22,10.0,West,13.8,-,N/A,,Clear,260,2012-10-01 13:54:00
9:54 AM,50.0,37.9,63,30.22,10.0,West,12.7,-,N/A,,Clear,270,2012-10-01 14:54:00
10:54 AM,55.0,37.9,53,30.22,10.0,West,10.4,-,N/A,,Clear,280,2012-10-01 15:54:00
11:54 AM,61.0,37.9,42,30.19,10.0,WNW,9.2,-,N/A,,Clear,290,2012-10-01 16:54:00
12:54 PM,64.4,33.8,32,30.15,10.0,WNW,10.4,-,N/A,,Clear,300,2012-10-01 17:54:00
1:54 PM,64.9,33.1,31,30.14,10.0,West,10.4,-,N/A,,Clear,280,2012-10-01 18:54:00
2:54 PM,66.0,30.9,27,30.12,10.0,West,6.9,-,N/A,,Clear,280,2012-10-01 19:54:00
3:54 PM,66.2,30.2,26,30.08,10.0,WSW,9.2,-,N/A,,Clear,250,2012-10-01 20:54:00
4:54 PM,66.0,28.0,24,30.06,10.0,SSW,10.4,16.1,N/A,,Clear,210,2012-10-01 21:54:00
5:54 PM,64.9,30.9,28,30.04,10.0,SSW,11.5,-,N/A,,Clear,200,2012-10-01 22:54:00
6:54 PM,63.0,30.0,29,30.01,10.0,South,11.5,-,N/A,,Clear,190,2012-10-01 23:54:00
7:54 PM,55.9,30.9,39,30.00,10.0,SSE,4.6,-,N/A,,Clear,160,2012-10-02 00:54:00
8:54 PM,50.0,33.1,52,29.97,10.0,SE,4.6,-,N/A,,Clear,140,2012-10-02 01:54:00
9:54 PM,48.9,33.1,54,29.96,10.0,SE,4.6,-,N/A,,Clear,140,2012-10-02 02:54:00
10:54 PM,48.9,32.0,52,29.91,10.0,SE,6.9,-,N/A,,Clear,140,2012-10-02 03:54:00
11:54 PM,48.0,32.0,54,29.86,10.0,SE,5.8,-,N/A,,Clear,140,2012-10-02 04:54:00